User: anonymous   Login
Location: Carrizalito
(10.3833°N, 67.0217°W)
Time: 23:19:17
(UTC+00:00)
Language:

VELOX 1 - Orbit

View from above orbital plane
View from above orbital plane
View from above satellite
View from above satellite

Ground track
Ground track

The orbit data is extracted from the following two-line orbital elements,

1 40057U 14034E   24105.79829295  .00006631  00000-0  78181-3 0  9995
2 40057  98.3502 317.9210 0008963 355.1266   4.9858 14.85083093528293
Epoch (UTC): 14 April 2024 19:09:32
Eccentricity: 0.0008963
inclination: 98.3502°
perigee height: 607 km
apogee height: 619 km
right ascension of ascending node: 317.9210°
argument of perigee: 355.1266°
revolutions per day: 14.85083093
mean anomaly at epoch: 4.9858°
orbit number at epoch: 52829

The dashed part of the orbit path shows where the satellite is in the earth's shadow,  

DLR